Location: Calvatone
(45.1167°N, 10.4333°E)
Time: 08:46:44
(UTC+00:00)

METEOR M2 - Pass Details

Date: 08 December 2023
Orbit: 818 x 826 km, 98.4° (Epoch: 24 February)

Event Time Altitude Azimuth Distance (km) Brightness Sun altitude
Rises 17:02:38 0° 191° (S) 3,350 ? -14.6°
Reaches altitude 10° 17:05:12 10° 201° (SSW) 2,422 ? -15.1°
Maximum altitude 17:10:00 33° 264° (W) 1,365 ? -15.9°
Drops below altitude 10° 17:14:50 10° 328° (NNW) 2,437 ? -16.7°
Sets 17:17:26 0° 338° (NNW) 3,374 ? -17.1°
